www.pogodaiklimat.ru

Погода и климат >> Архив погоды >> Бангладеш >> Chittagong


ПОГОДА в Chittagong

  • Прогноз погоды в Chittagong
  • Монитор погоды в Chittagong
  • Климат города

АРХИВ ПОГОДЫ в Chittagong

Время (UTC), дата Ветер
(напр.,м/с)
 
Видим.   Явления Облачность Т
(С)
Тd
(С)
f
(%)
Тe
(С)
Тes
(С)
Комфортность P
(гПа)
Po
(гПа)
Тmin
(С)
Tmax
(С)
R
(мм)
R24
(мм)
S
(см)
06 8.08 З 5 6000 м 6/4 540 м
[Sc As op]
+32.5 +25.0 65 +46 +51 опасность
перегрева
1003.0 1002.4
09 8.08 ЮВ 5 6000 м 6/4 540 м
[Sc As op]
+31.6 +27.0 77 +50 +52 опасность
перегрева
1001.4 1000.8
12 8.08 Ю 6 6000 м 6/4 540 м
[Sc As op]
+30.2 +25.0 74 +44 +44 опасность
перегрева
1001.2 1000.6 +33.5
21 8.08 СВ 3 5000 м 8/5 480 м
[Cb calv As op]
+27.4 +25.0 87 +39 +39 очень
душно
1003.8 1003.2
00 9.08 С 3 5000 м 8/5 480 м
[Cb calv As op]
+27.0 +25.0 89 +39 +39 очень
душно
1003.2 1002.6
03 9.08 В 4 5000 м 8/5 480 м
[Cb calv As op]
+30.5 +26.0 77 +46 +48 опасность
перегрева
1005.2 1004.6 +26.6
06 9.08 Ю 4 6000 м 8/5 540 м
[Cb calv As op]
+32.7 +25.0 64 +46 +50 опасность
перегрева
1004.5 1003.9
09 9.08 Ю 4 6000 м 8/4 540 м
[Sc As op]
+32.5 +27.0 73 +51 +53 опасность
перегрева
1002.4 1001.8
12 9.08 ЮЗ 4 6000 м 8/4 540 м
[Sc As op]
+31.8 +25.0 67 +45 +45 опасность
перегрева
1002.4 1001.8 +33.6
15 9.08 ЮЗ 4 6000 м 8/4 300 м
[Sc As op]
+31.8 +25.0 67 +45 +45 опасность
перегрева
1002.4 1001.8 +33.6
18 9.08 Ю 2 5000 м 5/3 540 м
[Sc Ac trans]
+28.8 +26.0 85 +43 +43 опасность
перегрева
1004.4 1003.8
21 9.08 штиль 0 5000 м 8/4 540 м
[Sc As op]
+28.0 +26.0 89 +42 +42 опасность
перегрева
1003.0 1002.4
00 10.08 штиль 0 5000 м 9/5 540 м
[Cb calv As op]
+27.5 +26.0 92 +41 +41 опасность
перегрева
1003.3 1002.7
03 10.08 ЮВ 2 6000 м 5/3 540 м
[Sc As op]
+31.0 +26.0 75 +46 +53 опасность
перегрева
1003.7 1003.1 +26.5
06 10.08 ЮЗ 3 6000 м 8/4 540 м
[Cb calv As op]
+32.5 +27.0 73 +51 +56 опасность
перегрева
1003.4 1002.8
09 10.08 Ю 2 6000 м 8/4 540 м
[Cb calv As op]
+31.8 +26.0 71 +47 +50 опасность
перегрева
1001.0 1000.4
12 10.08 Ю 4 6000 м 8/5 540 м
[Cb calv As op]
+30.8 +27.0 80 +48 +48 опасность
перегрева
1000.6 999.9 +32.9
15 10.08 Ю 5 5000 м 8/4 540 м
[Sc As op]
+29.2 +27.0 88 +46 +46 опасность
перегрева
1001.9 1001.3
18 10.08 Ю 2 5000 м 8/4 540 м
[Sc As op]
+27.6 +26.0 91 +41 +41 опасность
перегрева
1002.5 1001.9
21 10.08 З 2 5000 м 8/4 540 м
[Sc As op]
+27.0 +25.0 89 +39 +39 очень
душно
1001.6 1001.0
00 11.08 С 2 5000 м 8/4 540 м
[Sc As op]
+26.7 +25.0 90 +38 +38 очень
душно
1001.3 1000.6
03 11.08 Ю 3 6000 м 8/4 540 м
[Sc As op]
+30.0 +25.0 75 +43 +46 опасность
перегрева
1001.5 1000.9 +26.4
06 11.08 ЮЗ 4 6000 м 8/4 540 м
[Sc As op]
+32.0 +26.0 71 +48 +52 опасность
перегрева
1001.5 1000.9
09 11.08 ЮЗ 6 6000 м 9/5 540 м
[Cb calv As op]
+31.8 +25.0 67 +45 +46 опасность
перегрева
998.7 998.1
12 11.08 ЮЗ 3 6000 м 9/5 540 м
[Cb calv As op]
+30.0 +26.0 79 +45 +45 опасность
перегрева
998.0 997.4 +33.0
15 11.08 штиль 0 5000 м 5/3 540 м
[Sc Ac trans]
+28.1 +25.0 83 +40 +40 очень
душно
1000.3 999.7
18 11.08 штиль 0 5000 м 8/4 540 м
[Sc As op]
+27.8 +25.0 85 +40 +40 очень
душно
1000.7 1000.1
21 11.08 штиль 0 4000 м слабый дождь 10/6 270 м
[Cb calv As op]
+27.0 +26.0 94 +40 +40 очень
душно
999.3 998.6
00 12.08 Ю 2 5000 м {дождь} 8/4 540 м
[Sc As op]
+26.5 +26.0 97 +40 +40 очень
душно
999.9 999.2 8
03 12.08 ЮЗ 3 5000 м 8/4 540 м
[Sc As op]
+28.5 +26.0 86 +43 +46 опасность
перегрева
999.3 998.7 +26.0
06 12.08 Ю 3 6000 м 8/4 540 м
[Cu Sc As op]
+32.0 +25.0 67 +46 +51 опасность
перегрева
999.2 998.6
09 12.08 ЮЗ 4 5000 м {дождь} 8/5 300 м
[Cb calv As op]
+32.8 +25.0 64 +47 +49 опасность
перегрева
997.6 997.0 0.0
12 12.08 СЗ 2 4000 м {дождь} 9/5 480 м
[Cb calv As op]
+28.8 +27.0 90 +45 +45 опасность
перегрева
996.4 995.8 +33.8 12
15 12.08 С 2 4000 м 9/5 480 м
[Cb calv As op]
+28.5 +27.0 92 +45 +45 опасность
перегрева
998.4 997.8
18 12.08 СВ 2 4000 м 9/5 480 м
[Cb calv As op]
+28.0 +25.0 84 +40 +40 очень
душно
998.7 998.1
21 12.08 штиль 0 4000 м 9/5 480 м
[Cb calv As op]
+27.5 +26.0 92 +41 +41 опасность
перегрева
997.6 997.0
00 13.08 СЗ 2 4000 м 9/5 480 м
[Cb calv As op]
+27.0 +25.0 89 +39 +39 очень
душно
997.3 996.6
03 13.08 СВ 2 5000 м 8/4 540 м
[Sc As op]
+30.5 +26.0 77 +46 +49 опасность
перегрева
999.2 998.6 +25.9
06 13.08 ЮВ 2 6000 м 9/5 540 м
[Cb calv As op]
+32.0 +26.0 71 +48 +52 опасность
перегрева
998.7 998.1
12 13.08 ЮЗ 4 5000 м {дождь} 9/4 300 м
[Cb calv As op]
+30.0 +26.0 79 +45 +45 опасность
перегрева
996.7 996.1 +33.0 1
03 14.08 штиль 0 6000 м 8/4 540 м
[Sc As op]
+31.8 +24.0 63 +43 +48 опасность
перегрева
998.5 997.9 +27.0
06 14.08 В 2 6000 м 9/5 540 м
[Cb calv As op]
+33.0 +25.0 63 +47 +51 опасность
перегрева
997.9 997.3
09 14.08 ЮЗ 4 6000 м 8/4 540 м
[Sc Ac trans]
+34.0 +26.0 63 +50 +52 опасность
перегрева
995.3 994.7
12 14.08 С 2 5000 м в посл. час дождь 8/5 480 м
[Cb calv As op]
+29.4 +27.0 87 +46 +46 опасность
перегрева
995.6 994.9 +34.2 2
15 14.08 З 2 5000 м зарница 6/4 540 м
[Cb calv As op]
+29.0 +25.0 79 +42 +42 опасность
перегрева
999.0 998.4
18 14.08 штиль 0 5000 м 5/3 540 м
[Sc Ac trans]
+28.4 +25.0 82 +41 +41 опасность
перегрева
999.8 999.2
21 14.08 штиль 0 5000 м 6/3 300 м
[St As trans Cs]
+27.8 +25.0 85 +40 +40 очень
душно
998.7
00 15.08 штиль 0 5000 м 6/3 540 м
[Sc Ac trans]
+27.5 +26.0 92 +41 +42 опасность
перегрева
999.8 999.2
03 15.08 ЮВ 4 6000 м 6/3 540 м
[Sc Ac trans]
+31.0 +24.0 66 +43 +47 опасность
перегрева
1001.6 1001.0 +27.0

 

Местоположение метеостанции Chittagong (Бангладеш): широта 22.27 долгота 91.82 высота над уровнем моря 6 м.

В архиве по умолчанию представлена погода в Chittagong за последнюю неделю. Архивные данные за месяц целиком и за предыдущие месяцы, начиная с января 2011 года, Вы можете получить, выбрав интересующий диапазон дат из раскрывающегося списка и нажав кнопку "Ввод!".


*Определитесь, кто Вы:
робот инопланетянин человек

Внимание! Время в таблицах - всемирное. Для получения местного времени необходимо прибавить поправку, которая в Chittagong равна 6.5 ч.

Смотрите также архив погоды в соседних городах и на ближайших метеорологических станциях:

Погода в Sitakundu (Бангладеш) (37 км)
Погода в Sandwip (Бангладеш) (46 км)
Погода в Rangamati (Бангладеш) (49 км)
Погода в Kutubdia (Бангладеш) (50 км)
Погода в Hatia (Бангладеш) (76 км)
Погода в Feni (Бангладеш) (94 км)
Погода в Coxs Bazar (Бангладеш) (94 км)
Погода в Maijdicourt (Бангладеш) (100 км)
Погода в Bhola (Бангладеш) (129 км)
Погода в Comilla (Бангладеш) (145 км)

Пояснения к столбцам:

Ветер - указаны скорость ветра в м/с - средняя за 10 мин, порывы в срок и между сроками (в фигурных скобках) и направление, откуда дует ветер: С - северный, СВ - северо-восточный, В - восточный, ЮВ - юго-восточный, Ю - южный, ЮЗ - юго-западный, З - западный, СЗ - северо-западный.
Видимость - горизонтальная дальность видимости в метрах или километрах. При видимости от 1 до 10 км при отсутствии осадков обычно наблюдается дымка, при ухудшении видимости до 1 км и менее - туман. В сухую погоду видимость может ухудшаться дымом, пылью или мглою.
Явления - указаны атмосферные явления, наблюдавшиеся в срок или в последний час перед сроком; фигурными скобками обозначены явления, наблюдавшиеся между сроками (за 1-3 часа до срока); квадратными скобками обозначены град или гололедные отложения с указанием их диаметра в мм.
Облачность - указаны через наклонную черту общая и нижняя облачность в баллах и высота нижней границы облаков в метрах; квадратными скобками обозначены формы облаков: Ci - перистые, Cs - перисто-слоистые, Cc - перисто-кучевые, Ac - высококучевые, As - высокослоистые, Sc - слоисто-кучевые, Ns - слоисто-дождевые, Cu - кучевые, Cb - кучево-дождевые. Подробнее классификацию облаков см. в Атласе облаков (PDF).
T - Температура воздуха - температура, измеренная на высоте 2 м над землей.
Td - Температура точки росы - температура, при понижении до которой содержащийся в воздухе водяной пар достигнет насыщения.
f - Относительная влажность воздуха - влажноcть воздуха, измеренная на высоте 2 м над землей.
Te - Эффективная температура - температура, которую ощущает одетый по сезону человек в тени. Характеристика душности погоды. При расчете учитывается влияние влажности воздуха и скорости ветра на теплоощущения человека.
Tes - Эффективная температура на солнце - температура, которую ощущает человек, с поправкой на солнечный нагрев. Характеристика знойности погоды. Зависит от высоты солнца над горизонтом, облачности и скорости ветра. Ночью, в пасмурную погоду, а также при ветре 12 м/с и более поправка равна нулю.
P - Атмосферное давление - приведенное к уровню моря атмосферное давление.
Po - Атмосферное давление - измеренное на уровне метеостанции атмосферное давление.
Tmin - Минимальная температура - минимум температуры воздуха на высоте 2 м над землей.
Tmax - Максимальная температура - максимум температуры воздуха на высоте 2 м над землей.
R - Количество осадков - Количество выпавших осадков за период времени, мм. При наведении курсора мыши на число - период времени, за который выпало указанное количество осадков.
R24 - Количество осадков - Количество выпавших осадков за 24 часа, мм.
S - Снежный покров - Высота снежного покрова, см. При наведении курсора мыши на число - состояние снежного покрова и степень покрытия местности в баллах.